Year,Month,Day,Hour,Minute,Value (Times are PST for temperature in C)
2014,06,16,08,08,11.40
2014,06,16,08,09,11.40
2014,06,16,08,10,11.40
2014,06,16,08,11,11.40
2014,06,16,08,12,11.40
2014,06,16,08,13,11.40
2014,06,16,08,14,11.40
2014,06,16,08,15,11.50
2014,06,16,08,16,11.60
2014,06,16,08,17,11.60
2014,06,16,08,18,11.60
2014,06,16,08,19,11.60
2014,06,16,08,20,11.70
2014,06,16,08,21,11.70
2014,06,16,08,22,11.70
2014,06,16,08,23,11.80
2014,06,16,08,24,11.80
2014,06,16,08,25,11.80
2014,06,16,08,26,11.80
2014,06,16,08,27,11.80
2014,06,16,08,28,11.80
2014,06,16,08,29,11.80
2014,06,16,08,30,11.80
2014,06,16,08,31,11.80
2014,06,16,08,32,11.80
2014,06,16,08,33,11.80
2014,06,16,08,34,11.80
2014,06,16,08,35,11.80
2014,06,16,08,36,11.80
2014,06,16,08,37,11.90
2014,06,16,08,38,11.90
2014,06,16,08,39,11.90
2014,06,16,08,40,11.90
2014,06,16,08,41,12.00
2014,06,16,08,42,12.00
2014,06,16,08,43,12.00
2014,06,16,08,44,12.00
2014,06,16,08,45,12.00
2014,06,16,08,46,12.00
2014,06,16,08,47,12.00
2014,06,16,08,48,12.00
2014,06,16,08,49,12.10
2014,06,16,08,50,12.10
2014,06,16,08,51,12.10
2014,06,16,08,52,12.10
2014,06,16,08,53,12.10
2014,06,16,08,54,12.10
2014,06,16,08,55,12.20
2014,06,16,08,56,12.20
2014,06,16,08,57,12.20
2014,06,16,08,58,12.20
2014,06,16,08,59,12.20
2014,06,16,09,00,12.20
2014,06,16,09,01,12.10
2014,06,16,09,02,12.10
2014,06,16,09,03,12.10
2014,06,16,09,04,12.10
2014,06,16,09,05,12.10
2014,06,16,09,06,12.10
2014,06,16,09,07,12.10
2014,06,16,09,08,12.10
2014,06,16,09,09,12.10
2014,06,16,09,10,12.10
2014,06,16,09,11,12.10
2014,06,16,09,12,12.10
2014,06,16,09,13,12.10
2014,06,16,09,14,12.10
2014,06,16,09,15,12.10
2014,06,16,09,16,12.20
2014,06,16,09,17,12.20
2014,06,16,09,18,12.20
2014,06,16,09,19,12.20
2014,06,16,09,20,12.10
2014,06,16,09,21,12.10
2014,06,16,09,22,12.10
2014,06,16,09,23,12.10
2014,06,16,09,24,12.10
2014,06,16,09,25,12.10
2014,06,16,09,26,12.10
2014,06,16,09,27,12.10
2014,06,16,09,28,12.10
2014,06,16,09,29,12.10
2014,06,16,09,30,12.10
2014,06,16,09,31,12.10
2014,06,16,09,32,12.10
2014,06,16,09,33,12.10
2014,06,16,09,34,12.10
2014,06,16,09,35,12.20
2014,06,16,09,36,12.20
2014,06,16,09,37,12.20
2014,06,16,09,38,12.20
2014,06,16,09,39,12.20
2014,06,16,09,40,12.20
2014,06,16,09,41,12.30
2014,06,16,09,42,12.30
2014,06,16,09,43,12.30
2014,06,16,09,44,12.30
2014,06,16,09,45,12.40
2014,06,16,09,46,12.40
2014,06,16,09,47,12.40
2014,06,16,09,48,12.40
2014,06,16,09,49,12.40
2014,06,16,09,50,12.40
2014,06,16,09,51,12.40
2014,06,16,09,52,12.40
2014,06,16,09,53,12.40
2014,06,16,09,54,12.40
2014,06,16,09,55,12.40
2014,06,16,09,56,12.40
2014,06,16,09,57,12.40
2014,06,16,09,58,12.40
2014,06,16,09,59,12.40
2014,06,16,10,00,12.40
2014,06,16,10,01,12.40
2014,06,16,10,02,12.40
2014,06,16,10,03,12.40
2014,06,16,10,04,12.40
2014,06,16,10,05,12.40
2014,06,16,10,38,11.30
2014,06,16,10,39,11.20
2014,06,16,10,40,11.20
2014,06,16,10,41,11.20
2014,06,16,10,42,11.20
2014,06,16,10,43,11.20
2014,06,16,10,44,11.10
2014,06,16,10,45,11.10
2014,06,16,10,46,11.10
2014,06,16,10,47,11.10
2014,06,16,10,48,11.10
2014,06,16,10,49,11.20
2014,06,16,10,50,11.20
2014,06,16,10,51,11.20
2014,06,16,10,52,11.30
2014,06,16,10,53,11.30
2014,06,16,10,54,11.30
2014,06,16,10,55,11.30
2014,06,16,10,56,11.30
2014,06,16,10,57,11.40
2014,06,16,10,58,11.40
2014,06,16,10,59,11.40
2014,06,16,11,00,11.40
2014,06,16,11,01,11.40
2014,06,16,11,02,11.40
2014,06,16,11,03,11.40
2014,06,16,11,04,11.40
2014,06,16,11,05,11.40
2014,06,16,11,06,11.40
2014,06,16,11,07,11.40
2014,06,16,11,08,11.50
2014,06,16,11,09,11.60
2014,06,16,11,10,11.60
2014,06,16,11,11,11.50
2014,06,16,11,12,11.40
2014,06,16,11,13,11.40
2014,06,16,11,14,11.40
2014,06,16,11,15,11.40
2014,06,16,11,16,11.40
2014,06,16,11,17,11.40
2014,06,16,11,18,11.30
2014,06,16,11,19,11.30
2014,06,16,11,20,11.30
2014,06,16,11,21,11.30
2014,06,16,11,22,11.30
2014,06,16,11,23,11.30
2014,06,16,11,24,11.30
2014,06,16,11,25,11.30
2014,06,16,11,26,11.30
2014,06,16,11,27,11.30
2014,06,16,11,28,11.20
2014,06,16,11,29,11.20
2014,06,16,11,30,11.20
2014,06,16,11,31,11.20
2014,06,16,11,32,11.20
2014,06,16,11,33,11.10
2014,06,16,11,34,11.10
2014,06,16,11,35,11.20
2014,06,16,11,36,11.20
2014,06,16,11,37,11.20
2014,06,16,11,38,11.30
2014,06,16,11,39,11.30
2014,06,16,11,40,11.40
2014,06,16,11,41,11.40
2014,06,16,11,42,11.50
2014,06,16,11,43,11.60
2014,06,16,11,44,11.60
2014,06,16,11,45,11.60
2014,06,16,11,46,11.60
2014,06,16,11,47,11.70
2014,06,16,11,48,11.80
2014,06,16,11,49,11.90
2014,06,16,11,50,12.00
2014,06,16,11,51,12.10
2014,06,16,11,52,12.20
2014,06,16,11,53,12.30
2014,06,16,11,54,12.30
2014,06,16,11,55,12.40
2014,06,16,11,56,12.50
2014,06,16,11,57,12.60
2014,06,16,11,58,12.50
2014,06,16,11,59,12.60
2014,06,16,12,00,12.60
2014,06,16,12,01,12.70
2014,06,16,12,02,12.80
2014,06,16,12,03,12.80
2014,06,16,12,04,12.80
2014,06,16,12,05,12.90
2014,06,16,12,06,12.90
2014,06,16,12,07,12.90
2014,06,16,12,08,12.90
2014,06,16,12,09,12.80
2014,06,16,12,10,12.90
2014,06,16,12,11,13.00
2014,06,16,12,12,13.10
2014,06,16,12,13,13.20
2014,06,16,12,14,13.30
2014,06,16,12,15,13.40
2014,06,16,12,16,13.50
2014,06,16,12,17,13.40
2014,06,16,12,18,13.50
2014,06,16,12,19,13.50
2014,06,16,12,20,13.60
2014,06,16,12,21,13.60
2014,06,16,12,22,13.80
2014,06,16,12,23,13.90
2014,06,16,12,24,14.00
2014,06,16,12,25,14.00
2014,06,16,12,26,14.10
2014,06,16,12,27,14.20
2014,06,16,12,28,14.20
2014,06,16,12,29,14.20
2014,06,16,12,30,14.20
2014,06,16,12,31,14.30
2014,06,16,12,32,14.40
2014,06,16,12,33,14.40
2014,06,16,12,34,14.50
2014,06,16,12,35,14.70
2014,06,16,12,36,14.80
2014,06,16,12,37,14.80
2014,06,16,12,38,14.80
2014,06,16,12,39,14.80
2014,06,16,12,40,14.80
2014,06,16,12,41,14.70
2014,06,16,12,42,14.70
2014,06,16,12,43,14.70
2014,06,16,12,44,14.70
2014,06,16,12,45,14.60
2014,06,16,12,46,14.60
2014,06,16,12,47,14.50
2014,06,16,12,48,14.50
2014,06,16,12,49,14.30
2014,06,16,12,50,14.20
2014,06,16,12,51,14.20
2014,06,16,12,52,14.10
2014,06,16,12,53,14.00
2014,06,16,12,54,14.00
2014,06,16,12,55,13.90
2014,06,16,12,56,13.90
2014,06,16,12,57,13.90
2014,06,16,12,58,13.90
2014,06,16,12,59,13.80
2014,06,16,13,00,13.70
2014,06,16,13,01,13.70
2014,06,16,13,02,13.60
2014,06,16,13,03,13.50
2014,06,16,13,04,13.40
2014,06,16,13,05,13.30
2014,06,16,13,06,13.30
2014,06,16,13,07,13.20
2014,06,16,13,08,13.10
2014,06,16,13,09,13.00
2014,06,16,13,10,13.00
2014,06,16,13,11,12.90
2014,06,16,13,12,12.90
2014,06,16,13,13,12.90
2014,06,16,13,14,12.90
2014,06,16,13,15,12.90
2014,06,16,13,16,12.80
2014,06,16,13,17,12.90
2014,06,16,13,18,12.90
2014,06,16,13,19,12.90
2014,06,16,13,20,12.90
2014,06,16,13,21,12.90
2014,06,16,13,22,12.90
2014,06,16,13,23,12.90
2014,06,16,13,24,12.90
2014,06,16,13,25,12.90
2014,06,16,13,26,13.00
2014,06,16,13,27,13.00
2014,06,16,13,28,13.10
2014,06,16,13,29,13.20
2014,06,16,13,30,13.30
2014,06,16,13,31,13.30
2014,06,16,13,32,13.30
2014,06,16,13,33,13.30
2014,06,16,13,34,13.30
2014,06,16,13,35,13.40
2014,06,16,13,36,13.30
2014,06,16,13,37,13.30
2014,06,16,13,38,13.30
2014,06,16,13,39,13.30
2014,06,16,13,40,13.30
2014,06,16,13,41,13.40
2014,06,16,13,42,13.40
2014,06,16,13,43,13.50
2014,06,16,13,44,13.60
2014,06,16,13,45,13.70
2014,06,16,13,46,13.70
2014,06,16,13,47,13.80
2014,06,16,13,48,13.90
2014,06,16,13,49,14.00
2014,06,16,13,50,14.10
2014,06,16,13,51,14.20
2014,06,16,13,52,14.20
2014,06,16,13,53,14.30
2014,06,16,13,54,14.50
2014,06,16,13,55,14.50
2014,06,16,13,56,14.60
2014,06,16,13,57,14.70
2014,06,16,13,58,14.90
2014,06,16,13,59,15.00
2014,06,16,14,00,15.10
2014,06,16,14,01,15.10
2014,06,16,14,02,15.20
2014,06,16,14,03,15.30
2014,06,16,14,04,15.40
2014,06,16,14,05,15.40
2014,06,16,14,06,15.50
2014,06,16,14,07,15.60
2014,06,16,14,08,15.60
2014,06,16,14,09,15.80
2014,06,16,14,10,15.90
2014,06,16,14,11,16.00
2014,06,16,14,12,16.10
2014,06,16,14,13,16.20
2014,06,16,14,14,16.40
2014,06,16,14,15,16.50
2014,06,16,14,16,16.60
2014,06,16,14,17,16.70
2014,06,16,14,18,16.70
2014,06,16,14,19,16.80
2014,06,16,14,20,16.80
2014,06,16,14,21,16.80
2014,06,16,14,22,16.80
2014,06,16,14,23,16.90
2014,06,16,14,24,16.90
2014,06,16,14,25,16.90
2014,06,16,14,26,16.90
2014,06,16,14,27,17.00
2014,06,16,14,28,17.00
2014,06,16,14,29,17.00
2014,06,16,14,30,16.90
2014,06,16,14,31,16.90
2014,06,16,14,32,16.80
2014,06,16,14,33,16.70
2014,06,16,14,34,16.50
2014,06,16,14,35,16.40
2014,06,16,14,36,16.30
2014,06,16,14,37,16.30
2014,06,16,14,38,16.30
2014,06,16,14,39,16.30
2014,06,16,14,40,16.30
2014,06,16,14,41,16.30
2014,06,16,14,42,16.40
2014,06,16,14,43,16.40
2014,06,16,14,44,16.40
2014,06,16,14,45,16.40
2014,06,16,14,46,16.40
2014,06,16,14,47,16.40
2014,06,16,14,48,16.40
2014,06,16,14,49,16.30
2014,06,16,14,50,16.20
2014,06,16,14,51,16.20
2014,06,16,14,52,16.10
2014,06,16,14,53,16.10
2014,06,16,14,54,16.10
2014,06,16,14,55,15.90
2014,06,16,14,56,15.90
2014,06,16,14,57,15.80
2014,06,16,14,58,15.80
2014,06,16,14,59,15.70
2014,06,16,15,00,15.60
2014,06,16,15,01,15.60
2014,06,16,15,02,15.50
2014,06,16,15,03,15.50
2014,06,16,15,04,15.40
2014,06,16,15,05,15.40
2014,06,16,15,06,15.40
2014,06,16,15,07,15.30
2014,06,16,15,08,15.30
2014,06,16,15,09,15.30
2014,06,16,15,10,15.30
2014,06,16,15,11,15.20
2014,06,16,15,12,15.20
2014,06,16,15,13,15.10
2014,06,16,15,14,15.10
2014,06,16,15,15,15.10
2014,06,16,15,16,15.00
2014,06,16,15,17,15.00
2014,06,16,15,18,14.90
2014,06,16,15,19,14.80
2014,06,16,15,20,14.80
2014,06,16,15,21,14.80
2014,06,16,15,22,14.80
2014,06,16,15,23,14.80
2014,06,16,15,24,14.80
2014,06,16,15,25,14.80
2014,06,16,15,26,14.80
2014,06,16,15,27,14.80
2014,06,16,15,28,14.80
2014,06,16,15,29,14.80
2014,06,16,15,30,14.80
2014,06,16,15,31,14.80
2014,06,16,15,32,14.80
2014,06,16,15,33,14.80
2014,06,16,15,34,14.80
2014,06,16,15,35,14.80
2014,06,16,15,36,14.80
2014,06,16,15,37,14.80
2014,06,16,15,38,14.80
2014,06,16,15,39,14.90
2014,06,16,15,40,14.90
2014,06,16,15,41,15.00
2014,06,16,15,42,15.00
2014,06,16,15,43,15.10
2014,06,16,15,44,15.10
2014,06,16,15,45,15.20
2014,06,16,15,46,15.20
2014,06,16,15,47,15.30
2014,06,16,15,48,15.30
2014,06,16,15,49,15.30
2014,06,16,15,50,15.30
2014,06,16,15,51,15.20
2014,06,16,15,52,15.20
2014,06,16,15,53,15.20
2014,06,16,15,54,15.20
2014,06,16,15,55,15.10
2014,06,16,15,56,15.10
2014,06,16,15,57,15.00
2014,06,16,15,58,15.00
2014,06,16,15,59,15.00
2014,06,16,16,00,15.00
2014,06,16,16,01,15.00
2014,06,16,16,02,15.00
2014,06,16,16,03,15.00
2014,06,16,16,04,15.00
2014,06,16,16,05,15.00
2014,06,16,16,06,15.00
2014,06,16,16,07,15.10
2014,06,16,16,08,15.10
2014,06,16,16,09,15.20
2014,06,16,16,10,15.30
2014,06,16,16,11,15.30
2014,06,16,16,12,15.30
2014,06,16,16,13,15.30
2014,06,16,16,14,15.30
2014,06,16,16,15,15.30
2014,06,16,16,16,15.40
2014,06,16,16,17,15.40
2014,06,16,16,18,15.40
2014,06,16,16,19,15.50
2014,06,16,16,20,15.50
2014,06,16,16,21,15.50
2014,06,16,16,22,15.50
2014,06,16,16,23,15.50
2014,06,16,16,24,15.50
2014,06,16,16,25,15.50
2014,06,16,16,26,15.50
2014,06,16,16,27,15.50
2014,06,16,16,28,15.50
2014,06,16,16,29,15.50
2014,06,16,16,30,15.50
2014,06,16,16,31,15.50
2014,06,16,16,32,15.50
